Data supplied by UK-AIR on 5/4/2008
All Data GMT hour ending 
Status: R =Ratified P=Provisional,P*=As supplied
,,Mace Head,,,,,,,,,,,,,,,,,,,,,,,
Date,time,"Ozone",status,unit
 
01-01-1988,01:00,64,R,ugm-3
01-01-1988,02:00,68,R,ugm-3
01-01-1988,03:00,70,R,ugm-3
01-01-1988,04:00,70,R,ugm-3
01-01-1988,05:00,70,R,ugm-3
01-01-1988,06:00,54,R,ugm-3
01-01-1988,07:00,44,R,ugm-3
01-01-1988,08:00,44,R,ugm-3
01-01-1988,09:00,44,R,ugm-3
01-01-1988,10:00,44,R,ugm-3
01-01-1988,11:00,44,R,ugm-3
01-01-1988,12:00,44,R,ugm-3
01-01-1988,13:00,44,R,ugm-3
01-01-1988,14:00,48,R,ugm-3
01-01-1988,15:00,50,R,ugm-3
01-01-1988,16:00,52,R,ugm-3
01-01-1988,17:00,56,R,ugm-3
01-01-1988,18:00,66,R,ugm-3
01-01-1988,19:00,68,R,ugm-3
01-01-1988,20:00,68,R,ugm-3
01-01-1988,21:00,68,R,ugm-3
01-01-1988,22:00,66,R,ugm-3
01-01-1988,23:00,66,R,ugm-3
01-01-1988,24:00,66,R,ugm-3
02-01-1988,01:00,66,R,ugm-3
02-01-1988,02:00,66,R,ugm-3
02-01-1988,03:00,64,R,ugm-3
02-01-1988,04:00,64,R,ugm-3
02-01-1988,05:00,64,R,ugm-3
02-01-1988,06:00,64,R,ugm-3
02-01-1988,07:00,68,R,ugm-3
02-01-1988,08:00,68,R,ugm-3
02-01-1988,09:00,68,R,ugm-3
02-01-1988,10:00,70,R,ugm-3
02-01-1988,11:00,66,R,ugm-3
02-01-1988,12:00,64,R,ugm-3
02-01-1988,13:00,64,R,ugm-3
02-01-1988,14:00,64,R,ugm-3
02-01-1988,15:00,68,R,ugm-3
02-01-1988,16:00,66,R,ugm-3
02-01-1988,17:00,70,R,ugm-3
02-01-1988,18:00,74,R,ugm-3
02-01-1988,19:00,68,R,ugm-3
02-01-1988,20:00,64,R,ugm-3
02-01-1988,21:00,62,R,ugm-3
02-01-1988,22:00,64,R,ugm-3
02-01-1988,23:00,66,R,ugm-3
02-01-1988,24:00,64,R,ugm-3
03-01-1988,01:00,70,R,ugm-3
03-01-1988,02:00,70,R,ugm-3
03-01-1988,03:00,68,R,ugm-3
03-01-1988,04:00,64,R,ugm-3
03-01-1988,05:00,64,R,ugm-3
03-01-1988,06:00,68,R,ugm-3
03-01-1988,07:00,68,R,ugm-3
03-01-1988,08:00,64,R,ugm-3
03-01-1988,09:00,62,R,ugm-3
03-01-1988,10:00,64,R,ugm-3
03-01-1988,11:00,64,R,ugm-3
03-01-1988,12:00,64,R,ugm-3
03-01-1988,13:00,62,R,ugm-3
03-01-1988,14:00,62,R,ugm-3
03-01-1988,15:00,64,R,ugm-3
03-01-1988,16:00,64,R,ugm-3
03-01-1988,17:00,64,R,ugm-3
03-01-1988,18:00,66,R,ugm-3
03-01-1988,19:00,64,R,ugm-3
03-01-1988,20:00,64,R,ugm-3
03-01-1988,21:00,64,R,ugm-3
03-01-1988,22:00,64,R,ugm-3
03-01-1988,23:00,62,R,ugm-3
03-01-1988,24:00,60,R,ugm-3
04-01-1988,01:00,60,R,ugm-3
04-01-1988,02:00,60,R,ugm-3
04-01-1988,03:00,60,R,ugm-3
04-01-1988,04:00,56,R,ugm-3
04-01-1988,05:00,56,R,ugm-3
04-01-1988,06:00,60,R,ugm-3
04-01-1988,07:00,60,R,ugm-3
04-01-1988,08:00,62,R,ugm-3
04-01-1988,09:00,56,R,ugm-3
04-01-1988,10:00,52,R,ugm-3
04-01-1988,11:00,48,R,ugm-3
04-01-1988,12:00,54,R,ugm-3
04-01-1988,13:00,52,R,ugm-3
04-01-1988,14:00,60,R,ugm-3
04-01-1988,15:00,62,R,ugm-3
04-01-1988,16:00,62,R,ugm-3
04-01-1988,17:00,62,R,ugm-3
04-01-1988,18:00,62,R,ugm-3
04-01-1988,19:00,62,R,ugm-3
04-01-1988,20:00,62,R,ugm-3
04-01-1988,21:00,64,R,ugm-3
04-01-1988,22:00,64,R,ugm-3
04-01-1988,23:00,64,R,ugm-3
04-01-1988,24:00,64,R,ugm-3
05-01-1988,01:00,64,R,ugm-3
05-01-1988,02:00,62,R,ugm-3
05-01-1988,03:00,64,R,ugm-3
05-01-1988,04:00,64,R,ugm-3
05-01-1988,05:00,62,R,ugm-3
05-01-1988,06:00,60,R,ugm-3
05-01-1988,07:00,62,R,ugm-3
05-01-1988,08:00,54,R,ugm-3
05-01-1988,09:00,54,R,ugm-3
05-01-1988,10:00,48,R,ugm-3
05-01-1988,11:00,48,R,ugm-3
05-01-1988,12:00,52,R,ugm-3
05-01-1988,13:00,52,R,ugm-3
05-01-1988,14:00,54,R,ugm-3
05-01-1988,15:00,60,R,ugm-3
05-01-1988,16:00,56,R,ugm-3
05-01-1988,17:00,56,R,ugm-3
05-01-1988,18:00,54,R,ugm-3
05-01-1988,19:00,44,R,ugm-3
05-01-1988,20:00,36,R,ugm-3
05-01-1988,21:00,36,R,ugm-3
05-01-1988,22:00,38,R,ugm-3
05-01-1988,23:00,48,R,ugm-3
05-01-1988,24:00,50,R,ugm-3
06-01-1988,01:00,54,R,ugm-3
06-01-1988,02:00,60,R,ugm-3
06-01-1988,03:00,56,R,ugm-3
06-01-1988,04:00,60,R,ugm-3
06-01-1988,05:00,60,R,ugm-3
06-01-1988,06:00,60,R,ugm-3
06-01-1988,07:00,62,R,ugm-3
06-01-1988,08:00,62,R,ugm-3
06-01-1988,09:00,62,R,ugm-3
06-01-1988,10:00,62,R,ugm-3
06-01-1988,11:00,62,R,ugm-3
06-01-1988,12:00,62,R,ugm-3
06-01-1988,13:00,62,R,ugm-3
06-01-1988,14:00,62,R,ugm-3
06-01-1988,15:00,60,R,ugm-3
06-01-1988,16:00,56,R,ugm-3
06-01-1988,17:00,60,R,ugm-3
06-01-1988,18:00,60,R,ugm-3
06-01-1988,19:00,62,R,ugm-3
06-01-1988,20:00,66,R,ugm-3
06-01-1988,21:00,64,R,ugm-3
06-01-1988,22:00,66,R,ugm-3
06-01-1988,23:00,64,R,ugm-3
06-01-1988,24:00,64,R,ugm-3
07-01-1988,01:00,64,R,ugm-3
07-01-1988,02:00,64,R,ugm-3
07-01-1988,03:00,64,R,ugm-3
07-01-1988,04:00,62,R,ugm-3
07-01-1988,05:00,54,R,ugm-3
07-01-1988,06:00,56,R,ugm-3
07-01-1988,07:00,50,R,ugm-3
07-01-1988,08:00,48,R,ugm-3
07-01-1988,09:00,52,R,ugm-3
07-01-1988,10:00,54,R,ugm-3
07-01-1988,11:00,56,R,ugm-3
07-01-1988,12:00,56,R,ugm-3
07-01-1988,13:00,56,R,ugm-3
07-01-1988,14:00,60,R,ugm-3
07-01-1988,15:00,54,R,ugm-3
07-01-1988,16:00,50,R,ugm-3
07-01-1988,17:00,48,R,ugm-3
07-01-1988,18:00,48,R,ugm-3
07-01-1988,19:00,44,R,ugm-3
07-01-1988,20:00,48,R,ugm-3
07-01-1988,21:00,52,R,ugm-3
07-01-1988,22:00,50,R,ugm-3
07-01-1988,23:00,48,R,ugm-3
07-01-1988,24:00,44,R,ugm-3
08-01-1988,01:00,50,R,ugm-3
08-01-1988,02:00,48,R,ugm-3
08-01-1988,03:00,48,R,ugm-3
08-01-1988,04:00,50,R,ugm-3
08-01-1988,05:00,50,R,ugm-3
08-01-1988,06:00,52,R,ugm-3
08-01-1988,07:00,48,R,ugm-3
08-01-1988,08:00,44,R,ugm-3
08-01-1988,09:00,50,R,ugm-3
08-01-1988,10:00,54,R,ugm-3
08-01-1988,11:00,54,R,ugm-3
08-01-1988,12:00,54,R,ugm-3
08-01-1988,13:00,54,R,ugm-3
08-01-1988,14:00,54,R,ugm-3
08-01-1988,15:00,54,R,ugm-3
08-01-1988,16:00,54,R,ugm-3
08-01-1988,17:00,54,R,ugm-3
08-01-1988,18:00,54,R,ugm-3
08-01-1988,19:00,52,R,ugm-3
08-01-1988,20:00,54,R,ugm-3
08-01-1988,21:00,54,R,ugm-3
08-01-1988,22:00,56,R,ugm-3
08-01-1988,23:00,56,R,ugm-3
08-01-1988,24:00,60,R,ugm-3
09-01-1988,01:00,60,R,ugm-3
09-01-1988,02:00,60,R,ugm-3
09-01-1988,03:00,60,R,ugm-3
09-01-1988,04:00,60,R,ugm-3
09-01-1988,05:00,60,R,ugm-3
09-01-1988,06:00,66,R,ugm-3
09-01-1988,07:00,64,R,ugm-3
09-01-1988,08:00,68,R,ugm-3
09-01-1988,09:00,68,R,ugm-3
09-01-1988,10:00,68,R,ugm-3
09-01-1988,11:00,68,R,ugm-3
09-01-1988,12:00,66,R,ugm-3
09-01-1988,13:00,68,R,ugm-3
09-01-1988,14:00,64,R,ugm-3
09-01-1988,15:00,62,R,ugm-3
09-01-1988,16:00,66,R,ugm-3
09-01-1988,17:00,64,R,ugm-3
09-01-1988,18:00,62,R,ugm-3
09-01-1988,19:00,60,R,ugm-3
09-01-1988,20:00,60,R,ugm-3
09-01-1988,21:00,62,R,ugm-3
09-01-1988,22:00,62,R,ugm-3
09-01-1988,23:00,62,R,ugm-3
09-01-1988,24:00,60,R,ugm-3
10-01-1988,01:00,60,R,ugm-3
10-01-1988,02:00,60,R,ugm-3
10-01-1988,03:00,60,R,ugm-3
10-01-1988,04:00,60,R,ugm-3
10-01-1988,05:00,60,R,ugm-3
10-01-1988,06:00,60,R,ugm-3
10-01-1988,07:00,62,R,ugm-3
10-01-1988,08:00,62,R,ugm-3
10-01-1988,09:00,62,R,ugm-3
10-01-1988,10:00,62,R,ugm-3
10-01-1988,11:00,64,R,ugm-3
10-01-1988,12:00,64,R,ugm-3
10-01-1988,13:00,64,R,ugm-3
10-01-1988,14:00,64,R,ugm-3
10-01-1988,15:00,64,R,ugm-3
10-01-1988,16:00,64,R,ugm-3
10-01-1988,17:00,62,R,ugm-3
10-01-1988,18:00,62,R,ugm-3
10-01-1988,19:00,64,R,ugm-3
10-01-1988,20:00,64,R,ugm-3
10-01-1988,21:00,62,R,ugm-3
10-01-1988,22:00,62,R,ugm-3
10-01-1988,23:00,62,R,ugm-3
10-01-1988,24:00,62,R,ugm-3
11-01-1988,01:00,62,R,ugm-3
11-01-1988,02:00,62,R,ugm-3
11-01-1988,03:00,62,R,ugm-3
11-01-1988,04:00,62,R,ugm-3
11-01-1988,05:00,62,R,ugm-3
11-01-1988,06:00,66,R,ugm-3
11-01-1988,07:00,66,R,ugm-3
11-01-1988,08:00,66,R,ugm-3
11-01-1988,09:00,66,R,ugm-3
11-01-1988,10:00,64,R,ugm-3
11-01-1988,11:00,64,R,ugm-3
11-01-1988,12:00,62,R,ugm-3
11-01-1988,13:00,62,R,ugm-3
11-01-1988,14:00,62,R,ugm-3
11-01-1988,15:00,62,R,ugm-3
11-01-1988,16:00,62,R,ugm-3
11-01-1988,17:00,64,R,ugm-3
11-01-1988,18:00,64,R,ugm-3
11-01-1988,19:00,62,R,ugm-3
11-01-1988,20:00,62,R,ugm-3
11-01-1988,21:00,62,R,ugm-3
11-01-1988,22:00,62,R,ugm-3
11-01-1988,23:00,62,R,ugm-3
11-01-1988,24:00,64,R,ugm-3
12-01-1988,01:00,64,R,ugm-3
12-01-1988,02:00,64,R,ugm-3
12-01-1988,03:00,64,R,ugm-3
12-01-1988,04:00,64,R,ugm-3
12-01-1988,05:00,64,R,ugm-3
12-01-1988,06:00,62,R,ugm-3
12-01-1988,07:00,62,R,ugm-3
12-01-1988,08:00,60,R,ugm-3
12-01-1988,09:00,62,R,ugm-3
12-01-1988,10:00,62,R,ugm-3
12-01-1988,11:00,62,R,ugm-3
12-01-1988,12:00,62,R,ugm-3
12-01-1988,13:00,62,R,ugm-3
12-01-1988,14:00,64,R,ugm-3
12-01-1988,15:00,64,R,ugm-3
12-01-1988,16:00,66,R,ugm-3
12-01-1988,17:00,68,R,ugm-3
12-01-1988,18:00,68,R,ugm-3
12-01-1988,19:00,68,R,ugm-3
12-01-1988,20:00,68,R,ugm-3
12-01-1988,21:00,66,R,ugm-3
12-01-1988,22:00,66,R,ugm-3
12-01-1988,23:00,66,R,ugm-3
12-01-1988,24:00,66,R,ugm-3
13-01-1988,01:00,74,R,ugm-3
13-01-1988,02:00,66,R,ugm-3
13-01-1988,03:00,62,R,ugm-3
13-01-1988,04:00,64,R,ugm-3
13-01-1988,05:00,64,R,ugm-3
13-01-1988,06:00,64,R,ugm-3
13-01-1988,07:00,64,R,ugm-3
13-01-1988,08:00,62,R,ugm-3
13-01-1988,09:00,62,R,ugm-3
13-01-1988,10:00,62,R,ugm-3
13-01-1988,11:00,62,R,ugm-3
13-01-1988,12:00,64,R,ugm-3
13-01-1988,13:00,64,R,ugm-3
13-01-1988,14:00,66,R,ugm-3
13-01-1988,15:00,66,R,ugm-3
13-01-1988,16:00,66,R,ugm-3
13-01-1988,17:00,66,R,ugm-3
13-01-1988,18:00,66,R,ugm-3
13-01-1988,19:00,68,R,ugm-3
13-01-1988,20:00,68,R,ugm-3
13-01-1988,21:00,66,R,ugm-3
13-01-1988,22:00,64,R,ugm-3
13-01-1988,23:00,64,R,ugm-3
13-01-1988,24:00,62,R,ugm-3
14-01-1988,01:00,64,R,ugm-3
14-01-1988,02:00,64,R,ugm-3
14-01-1988,03:00,64,R,ugm-3
14-01-1988,04:00,62,R,ugm-3
14-01-1988,05:00,64,R,ugm-3
14-01-1988,06:00,64,R,ugm-3
14-01-1988,07:00,64,R,ugm-3
14-01-1988,08:00,66,R,ugm-3
14-01-1988,09:00,66,R,ugm-3
14-01-1988,10:00,66,R,ugm-3
14-01-1988,11:00,64,R,ugm-3
14-01-1988,12:00,62,R,ugm-3
14-01-1988,13:00,62,R,ugm-3
14-01-1988,14:00,62,R,ugm-3
14-01-1988,15:00,60,R,ugm-3
14-01-1988,16:00,66,R,ugm-3
14-01-1988,17:00,64,R,ugm-3
14-01-1988,18:00,64,R,ugm-3
14-01-1988,19:00,66,R,ugm-3
14-01-1988,20:00,64,R,ugm-3
14-01-1988,21:00,64,R,ugm-3
14-01-1988,22:00,62,R,ugm-3
14-01-1988,23:00,62,R,ugm-3
14-01-1988,24:00,62,R,ugm-3
15-01-1988,01:00,60,R,ugm-3
15-01-1988,02:00,60,R,ugm-3
15-01-1988,03:00,62,R,ugm-3
15-01-1988,04:00,60,R,ugm-3
15-01-1988,05:00,56,R,ugm-3
15-01-1988,06:00,56,R,ugm-3
15-01-1988,07:00,56,R,ugm-3
15-01-1988,08:00,56,R,ugm-3
15-01-1988,09:00,56,R,ugm-3
15-01-1988,10:00,56,R,ugm-3
15-01-1988,11:00,,,
15-01-1988,12:00,,,
15-01-1988,13:00,,,
15-01-1988,14:00,,,
15-01-1988,15:00,,,
15-01-1988,16:00,,,
15-01-1988,17:00,,,
15-01-1988,18:00,,,
15-01-1988,19:00,,,
15-01-1988,20:00,,,
15-01-1988,21:00,,,
15-01-1988,22:00,,,
15-01-1988,23:00,,,
15-01-1988,24:00,,,
16-01-1988,01:00,,,
16-01-1988,02:00,,,
16-01-1988,03:00,,,
16-01-1988,04:00,,,
16-01-1988,05:00,,,
16-01-1988,06:00,,,
16-01-1988,07:00,,,
16-01-1988,08:00,,,
16-01-1988,09:00,,,
16-01-1988,10:00,,,
16-01-1988,11:00,,,
16-01-1988,12:00,,,
16-01-1988,13:00,,,
16-01-1988,14:00,,,
16-01-1988,15:00,,,
16-01-1988,16:00,,,
16-01-1988,17:00,,,
16-01-1988,18:00,,,
16-01-1988,19:00,60,R,ugm-3
16-01-1988,20:00,56,R,ugm-3
16-01-1988,21:00,60,R,ugm-3
16-01-1988,22:00,60,R,ugm-3
16-01-1988,23:00,60,R,ugm-3
16-01-1988,24:00,60,R,ugm-3
17-01-1988,01:00,56,R,ugm-3
17-01-1988,02:00,66,R,ugm-3
17-01-1988,03:00,68,R,ugm-3
17-01-1988,04:00,68,R,ugm-3
17-01-1988,05:00,68,R,ugm-3
17-01-1988,06:00,66,R,ugm-3
17-01-1988,07:00,66,R,ugm-3
17-01-1988,08:00,64,R,ugm-3
17-01-1988,09:00,60,R,ugm-3
17-01-1988,10:00,56,R,ugm-3
17-01-1988,11:00,52,R,ugm-3
17-01-1988,12:00,54,R,ugm-3
17-01-1988,13:00,54,R,ugm-3
17-01-1988,14:00,54,R,ugm-3
17-01-1988,15:00,56,R,ugm-3
17-01-1988,16:00,56,R,ugm-3
17-01-1988,17:00,52,R,ugm-3
17-01-1988,18:00,48,R,ugm-3
17-01-1988,19:00,42,R,ugm-3
17-01-1988,20:00,48,R,ugm-3
17-01-1988,21:00,52,R,ugm-3
17-01-1988,22:00,44,R,ugm-3
17-01-1988,23:00,54,R,ugm-3
17-01-1988,24:00,60,R,ugm-3
18-01-1988,01:00,38,R,ugm-3
18-01-1988,02:00,44,R,ugm-3
18-01-1988,03:00,44,R,ugm-3
18-01-1988,04:00,44,R,ugm-3
18-01-1988,05:00,44,R,ugm-3
18-01-1988,06:00,40,R,ugm-3
18-01-1988,07:00,40,R,ugm-3
18-01-1988,08:00,44,R,ugm-3
18-01-1988,09:00,48,R,ugm-3
18-01-1988,10:00,42,R,ugm-3
18-01-1988,11:00,42,R,ugm-3
18-01-1988,12:00,44,R,ugm-3
18-01-1988,13:00,48,R,ugm-3
18-01-1988,14:00,44,R,ugm-3
18-01-1988,15:00,50,R,ugm-3
18-01-1988,16:00,52,R,ugm-3
18-01-1988,17:00,48,R,ugm-3
18-01-1988,18:00,48,R,ugm-3
18-01-1988,19:00,38,R,ugm-3
18-01-1988,20:00,42,R,ugm-3
18-01-1988,21:00,54,R,ugm-3
18-01-1988,22:00,50,R,ugm-3
18-01-1988,23:00,50,R,ugm-3
18-01-1988,24:00,52,R,ugm-3
19-01-1988,01:00,52,R,ugm-3
19-01-1988,02:00,54,R,ugm-3
19-01-1988,03:00,54,R,ugm-3
19-01-1988,04:00,56,R,ugm-3
19-01-1988,05:00,50,R,ugm-3
19-01-1988,06:00,52,R,ugm-3
19-01-1988,07:00,52,R,ugm-3
19-01-1988,08:00,42,R,ugm-3
19-01-1988,09:00,54,R,ugm-3
19-01-1988,10:00,60,R,ugm-3
19-01-1988,11:00,62,R,ugm-3
19-01-1988,12:00,64,R,ugm-3
19-01-1988,13:00,64,R,ugm-3
19-01-1988,14:00,64,R,ugm-3
19-01-1988,15:00,66,R,ugm-3
19-01-1988,16:00,62,R,ugm-3
19-01-1988,17:00,60,R,ugm-3
19-01-1988,18:00,60,R,ugm-3
19-01-1988,19:00,60,R,ugm-3
19-01-1988,20:00,60,R,ugm-3
19-01-1988,21:00,62,R,ugm-3
19-01-1988,22:00,62,R,ugm-3
19-01-1988,23:00,60,R,ugm-3
19-01-1988,24:00,60,R,ugm-3
20-01-1988,01:00,56,R,ugm-3
20-01-1988,02:00,56,R,ugm-3
20-01-1988,03:00,54,R,ugm-3
20-01-1988,04:00,52,R,ugm-3
20-01-1988,05:00,52,R,ugm-3
20-01-1988,06:00,54,R,ugm-3
20-01-1988,07:00,60,R,ugm-3
20-01-1988,08:00,62,R,ugm-3
20-01-1988,09:00,62,R,ugm-3
20-01-1988,10:00,62,R,ugm-3
20-01-1988,11:00,56,R,ugm-3
20-01-1988,12:00,54,R,ugm-3
20-01-1988,13:00,52,R,ugm-3
20-01-1988,14:00,52,R,ugm-3
20-01-1988,15:00,52,R,ugm-3
20-01-1988,16:00,52,R,ugm-3
20-01-1988,17:00,52,R,ugm-3
20-01-1988,18:00,52,R,ugm-3
20-01-1988,19:00,54,R,ugm-3
20-01-1988,20:00,52,R,ugm-3
20-01-1988,21:00,50,R,ugm-3
20-01-1988,22:00,54,R,ugm-3
20-01-1988,23:00,56,R,ugm-3
20-01-1988,24:00,60,R,ugm-3
21-01-1988,01:00,62,R,ugm-3
21-01-1988,02:00,62,R,ugm-3
21-01-1988,03:00,64,R,ugm-3
21-01-1988,04:00,64,R,ugm-3
21-01-1988,05:00,64,R,ugm-3
21-01-1988,06:00,62,R,ugm-3
21-01-1988,07:00,60,R,ugm-3
21-01-1988,08:00,62,R,ugm-3
21-01-1988,09:00,62,R,ugm-3
21-01-1988,10:00,60,R,ugm-3
21-01-1988,11:00,60,R,ugm-3
21-01-1988,12:00,60,R,ugm-3
21-01-1988,13:00,56,R,ugm-3
21-01-1988,14:00,56,R,ugm-3
21-01-1988,15:00,56,R,ugm-3
21-01-1988,16:00,56,R,ugm-3
21-01-1988,17:00,60,R,ugm-3
21-01-1988,18:00,56,R,ugm-3
21-01-1988,19:00,60,R,ugm-3
21-01-1988,20:00,52,R,ugm-3
21-01-1988,21:00,54,R,ugm-3
21-01-1988,22:00,52,R,ugm-3
21-01-1988,23:00,48,R,ugm-3
21-01-1988,24:00,52,R,ugm-3
22-01-1988,01:00,54,R,ugm-3
22-01-1988,02:00,56,R,ugm-3
22-01-1988,03:00,56,R,ugm-3
22-01-1988,04:00,62,R,ugm-3
22-01-1988,05:00,62,R,ugm-3
22-01-1988,06:00,62,R,ugm-3
22-01-1988,07:00,64,R,ugm-3
22-01-1988,08:00,64,R,ugm-3
22-01-1988,09:00,64,R,ugm-3
22-01-1988,10:00,64,R,ugm-3
22-01-1988,11:00,64,R,ugm-3
22-01-1988,12:00,64,R,ugm-3
22-01-1988,13:00,64,R,ugm-3
22-01-1988,14:00,64,R,ugm-3
22-01-1988,15:00,64,R,ugm-3
22-01-1988,16:00,64,R,ugm-3
22-01-1988,17:00,64,R,ugm-3
22-01-1988,18:00,64,R,ugm-3
22-01-1988,19:00,64,R,ugm-3
22-01-1988,20:00,64,R,ugm-3
22-01-1988,21:00,62,R,ugm-3
22-01-1988,22:00,62,R,ugm-3
22-01-1988,23:00,62,R,ugm-3
22-01-1988,24:00,62,R,ugm-3
23-01-1988,01:00,62,R,ugm-3
23-01-1988,02:00,64,R,ugm-3
23-01-1988,03:00,54,R,ugm-3
23-01-1988,04:00,56,R,ugm-3
23-01-1988,05:00,50,R,ugm-3
23-01-1988,06:00,52,R,ugm-3
23-01-1988,07:00,62,R,ugm-3
23-01-1988,08:00,62,R,ugm-3
23-01-1988,09:00,64,R,ugm-3
23-01-1988,10:00,66,R,ugm-3
23-01-1988,11:00,64,R,ugm-3
23-01-1988,12:00,64,R,ugm-3
23-01-1988,13:00,62,R,ugm-3
23-01-1988,14:00,62,R,ugm-3
23-01-1988,15:00,64,R,ugm-3
23-01-1988,16:00,62,R,ugm-3
23-01-1988,17:00,64,R,ugm-3
23-01-1988,18:00,66,R,ugm-3
23-01-1988,19:00,64,R,ugm-3
23-01-1988,20:00,66,R,ugm-3
23-01-1988,21:00,64,R,ugm-3
23-01-1988,22:00,66,R,ugm-3
23-01-1988,23:00,68,R,ugm-3
23-01-1988,24:00,68,R,ugm-3
24-01-1988,01:00,64,R,ugm-3
24-01-1988,02:00,60,R,ugm-3
24-01-1988,03:00,62,R,ugm-3
24-01-1988,04:00,64,R,ugm-3
24-01-1988,05:00,64,R,ugm-3
24-01-1988,06:00,64,R,ugm-3
24-01-1988,07:00,62,R,ugm-3
24-01-1988,08:00,62,R,ugm-3
24-01-1988,09:00,60,R,ugm-3
24-01-1988,10:00,60,R,ugm-3
24-01-1988,11:00,60,R,ugm-3
24-01-1988,12:00,60,R,ugm-3
24-01-1988,13:00,60,R,ugm-3
24-01-1988,14:00,60,R,ugm-3
24-01-1988,15:00,60,R,ugm-3
24-01-1988,16:00,54,R,ugm-3
24-01-1988,17:00,56,R,ugm-3
24-01-1988,18:00,56,R,ugm-3
24-01-1988,19:00,56,R,ugm-3
24-01-1988,20:00,56,R,ugm-3
24-01-1988,21:00,56,R,ugm-3
24-01-1988,22:00,50,R,ugm-3
24-01-1988,23:00,40,R,ugm-3
24-01-1988,24:00,36,R,ugm-3
25-01-1988,01:00,36,R,ugm-3
25-01-1988,02:00,36,R,ugm-3
25-01-1988,03:00,38,R,ugm-3
25-01-1988,04:00,40,R,ugm-3
25-01-1988,05:00,38,R,ugm-3
25-01-1988,06:00,34,R,ugm-3
25-01-1988,07:00,38,R,ugm-3
25-01-1988,08:00,34,R,ugm-3
25-01-1988,09:00,30,R,ugm-3
25-01-1988,10:00,34,R,ugm-3
25-01-1988,11:00,34,R,ugm-3
25-01-1988,12:00,38,R,ugm-3
25-01-1988,13:00,42,R,ugm-3
25-01-1988,14:00,44,R,ugm-3
25-01-1988,15:00,48,R,ugm-3
25-01-1988,16:00,48,R,ugm-3
25-01-1988,17:00,50,R,ugm-3
25-01-1988,18:00,50,R,ugm-3
25-01-1988,19:00,50,R,ugm-3
25-01-1988,20:00,38,R,ugm-3
25-01-1988,21:00,34,R,ugm-3
25-01-1988,22:00,30,R,ugm-3
25-01-1988,23:00,30,R,ugm-3
25-01-1988,24:00,40,R,ugm-3
26-01-1988,01:00,34,R,ugm-3
26-01-1988,02:00,30,R,ugm-3
26-01-1988,03:00,30,R,ugm-3
26-01-1988,04:00,30,R,ugm-3
26-01-1988,05:00,34,R,ugm-3
26-01-1988,06:00,38,R,ugm-3
26-01-1988,07:00,42,R,ugm-3
26-01-1988,08:00,44,R,ugm-3
26-01-1988,09:00,40,R,ugm-3
26-01-1988,10:00,38,R,ugm-3
26-01-1988,11:00,40,R,ugm-3
26-01-1988,12:00,42,R,ugm-3
26-01-1988,13:00,48,R,ugm-3
26-01-1988,14:00,48,R,ugm-3
26-01-1988,15:00,44,R,ugm-3
26-01-1988,16:00,36,R,ugm-3
26-01-1988,17:00,36,R,ugm-3
26-01-1988,18:00,34,R,ugm-3
26-01-1988,19:00,36,R,ugm-3
26-01-1988,20:00,30,R,ugm-3
26-01-1988,21:00,28,R,ugm-3
26-01-1988,22:00,24,R,ugm-3
26-01-1988,23:00,18,R,ugm-3
26-01-1988,24:00,22,R,ugm-3
27-01-1988,01:00,22,R,ugm-3
27-01-1988,02:00,18,R,ugm-3
27-01-1988,03:00,22,R,ugm-3
27-01-1988,04:00,18,R,ugm-3
27-01-1988,05:00,18,R,ugm-3
27-01-1988,06:00,16,R,ugm-3
27-01-1988,07:00,14,R,ugm-3
27-01-1988,08:00,14,R,ugm-3
27-01-1988,09:00,12,R,ugm-3
27-01-1988,10:00,10,R,ugm-3
27-01-1988,11:00,18,R,ugm-3
27-01-1988,12:00,22,R,ugm-3
27-01-1988,13:00,24,R,ugm-3
27-01-1988,14:00,26,R,ugm-3
27-01-1988,15:00,28,R,ugm-3
27-01-1988,16:00,22,R,ugm-3
27-01-1988,17:00,22,R,ugm-3
27-01-1988,18:00,24,R,ugm-3
27-01-1988,19:00,22,R,ugm-3
27-01-1988,20:00,22,R,ugm-3
27-01-1988,21:00,14,R,ugm-3
27-01-1988,22:00,10,R,ugm-3
27-01-1988,23:00,14,R,ugm-3
27-01-1988,24:00,18,R,ugm-3
28-01-1988,01:00,22,R,ugm-3
28-01-1988,02:00,24,R,ugm-3
28-01-1988,03:00,24,R,ugm-3
28-01-1988,04:00,24,R,ugm-3
28-01-1988,05:00,26,R,ugm-3
28-01-1988,06:00,26,R,ugm-3
28-01-1988,07:00,24,R,ugm-3
28-01-1988,08:00,16,R,ugm-3
28-01-1988,09:00,12,R,ugm-3
28-01-1988,10:00,14,R,ugm-3
28-01-1988,11:00,16,R,ugm-3
28-01-1988,12:00,24,R,ugm-3
28-01-1988,13:00,28,R,ugm-3
28-01-1988,14:00,40,R,ugm-3
28-01-1988,15:00,50,R,ugm-3
28-01-1988,16:00,50,R,ugm-3
28-01-1988,17:00,50,R,ugm-3
28-01-1988,18:00,50,R,ugm-3
28-01-1988,19:00,52,R,ugm-3
28-01-1988,20:00,66,R,ugm-3
28-01-1988,21:00,74,R,ugm-3
28-01-1988,22:00,70,R,ugm-3
28-01-1988,23:00,70,R,ugm-3
28-01-1988,24:00,74,R,ugm-3
29-01-1988,01:00,64,R,ugm-3
29-01-1988,02:00,62,R,ugm-3
29-01-1988,03:00,60,R,ugm-3
29-01-1988,04:00,60,R,ugm-3
29-01-1988,05:00,60,R,ugm-3
29-01-1988,06:00,60,R,ugm-3
29-01-1988,07:00,62,R,ugm-3
29-01-1988,08:00,62,R,ugm-3
29-01-1988,09:00,62,R,ugm-3
29-01-1988,10:00,60,R,ugm-3
29-01-1988,11:00,62,R,ugm-3
29-01-1988,12:00,62,R,ugm-3
29-01-1988,13:00,62,R,ugm-3
29-01-1988,14:00,60,R,ugm-3
29-01-1988,15:00,62,R,ugm-3
29-01-1988,16:00,62,R,ugm-3
29-01-1988,17:00,64,R,ugm-3
29-01-1988,18:00,64,R,ugm-3
29-01-1988,19:00,66,R,ugm-3
29-01-1988,20:00,66,R,ugm-3
29-01-1988,21:00,62,R,ugm-3
29-01-1988,22:00,62,R,ugm-3
29-01-1988,23:00,62,R,ugm-3
29-01-1988,24:00,62,R,ugm-3
30-01-1988,01:00,62,R,ugm-3
30-01-1988,02:00,62,R,ugm-3
30-01-1988,03:00,62,R,ugm-3
30-01-1988,04:00,62,R,ugm-3
30-01-1988,05:00,62,R,ugm-3
30-01-1988,06:00,62,R,ugm-3
30-01-1988,07:00,62,R,ugm-3
30-01-1988,08:00,64,R,ugm-3
30-01-1988,09:00,64,R,ugm-3
30-01-1988,10:00,66,R,ugm-3
30-01-1988,11:00,68,R,ugm-3
30-01-1988,12:00,66,R,ugm-3
30-01-1988,13:00,68,R,ugm-3
30-01-1988,14:00,66,R,ugm-3
30-01-1988,15:00,66,R,ugm-3
30-01-1988,16:00,66,R,ugm-3
30-01-1988,17:00,66,R,ugm-3
30-01-1988,18:00,66,R,ugm-3
30-01-1988,19:00,66,R,ugm-3
30-01-1988,20:00,66,R,ugm-3
30-01-1988,21:00,66,R,ugm-3
30-01-1988,22:00,68,R,ugm-3
30-01-1988,23:00,66,R,ugm-3
30-01-1988,24:00,68,R,ugm-3
31-01-1988,01:00,68,R,ugm-3
31-01-1988,02:00,68,R,ugm-3
31-01-1988,03:00,68,R,ugm-3
31-01-1988,04:00,68,R,ugm-3
31-01-1988,05:00,68,R,ugm-3
31-01-1988,06:00,66,R,ugm-3
31-01-1988,07:00,66,R,ugm-3
31-01-1988,08:00,66,R,ugm-3
31-01-1988,09:00,68,R,ugm-3
31-01-1988,10:00,66,R,ugm-3
31-01-1988,11:00,64,R,ugm-3
31-01-1988,12:00,64,R,ugm-3
31-01-1988,13:00,64,R,ugm-3
31-01-1988,14:00,54,R,ugm-3
31-01-1988,15:00,54,R,ugm-3
31-01-1988,16:00,54,R,ugm-3
31-01-1988,17:00,56,R,ugm-3
31-01-1988,18:00,62,R,ugm-3
31-01-1988,19:00,62,R,ugm-3
31-01-1988,20:00,62,R,ugm-3
31-01-1988,21:00,62,R,ugm-3
31-01-1988,22:00,64,R,ugm-3
31-01-1988,23:00,64,R,ugm-3
31-01-1988,24:00,64,R,ugm-3
01-02-1988,01:00,64,R,ugm-3
01-02-1988,02:00,64,R,ugm-3
01-02-1988,03:00,66,R,ugm-3
01-02-1988,04:00,66,R,ugm-3
01-02-1988,05:00,66,R,ugm-3
01-02-1988,06:00,78,R,ugm-3
01-02-1988,07:00,76,R,ugm-3
01-02-1988,08:00,76,R,ugm-3
01-02-1988,09:00,76,R,ugm-3
01-02-1988,10:00,66,R,ugm-3
01-02-1988,11:00,64,R,ugm-3
01-02-1988,12:00,64,R,ugm-3
01-02-1988,13:00,64,R,ugm-3
01-02-1988,14:00,62,R,ugm-3
01-02-1988,15:00,62,R,ugm-3
01-02-1988,16:00,62,R,ugm-3
01-02-1988,17:00,64,R,ugm-3
01-02-1988,18:00,,,
01-02-1988,19:00,66,R,ugm-3
01-02-1988,20:00,64,R,ugm-3
01-02-1988,21:00,52,R,ugm-3
01-02-1988,22:00,52,R,ugm-3
01-02-1988,23:00,52,R,ugm-3
01-02-1988,24:00,54,R,ugm-3
02-02-1988,01:00,54,R,ugm-3
02-02-1988,02:00,52,R,ugm-3
02-02-1988,03:00,56,R,ugm-3
02-02-1988,04:00,56,R,ugm-3
02-02-1988,05:00,56,R,ugm-3
02-02-1988,06:00,56,R,ugm-3
02-02-1988,07:00,60,R,ugm-3
02-02-1988,08:00,60,R,ugm-3
02-02-1988,09:00,62,R,ugm-3
02-02-1988,10:00,62,R,ugm-3
02-02-1988,11:00,62,R,ugm-3
02-02-1988,12:00,64,R,ugm-3
02-02-1988,13:00,68,R,ugm-3
02-02-1988,14:00,60,R,ugm-3
02-02-1988,15:00,56,R,ugm-3
02-02-1988,16:00,56,R,ugm-3
02-02-1988,17:00,56,R,ugm-3
02-02-1988,18:00,60,R,ugm-3
02-02-1988,19:00,62,R,ugm-3
02-02-1988,20:00,62,R,ugm-3
02-02-1988,21:00,66,R,ugm-3
02-02-1988,22:00,80,R,ugm-3
02-02-1988,23:00,82,R,ugm-3
02-02-1988,24:00,68,R,ugm-3
03-02-1988,01:00,64,R,ugm-3
03-02-1988,02:00,64,R,ugm-3
03-02-1988,03:00,64,R,ugm-3
03-02-1988,04:00,64,R,ugm-3
03-02-1988,05:00,62,R,ugm-3
03-02-1988,06:00,60,R,ugm-3
03-02-1988,07:00,60,R,ugm-3
03-02-1988,08:00,56,R,ugm-3
03-02-1988,09:00,52,R,ugm-3
03-02-1988,10:00,50,R,ugm-3
03-02-1988,11:00,50,R,ugm-3
03-02-1988,12:00,50,R,ugm-3
03-02-1988,13:00,48,R,ugm-3
03-02-1988,14:00,50,R,ugm-3
03-02-1988,15:00,50,R,ugm-3
03-02-1988,16:00,52,R,ugm-3
03-02-1988,17:00,50,R,ugm-3
03-02-1988,18:00,52,R,ugm-3
03-02-1988,19:00,52,R,ugm-3
03-02-1988,20:00,60,R,ugm-3
03-02-1988,21:00,62,R,ugm-3
03-02-1988,22:00,64,R,ugm-3
03-02-1988,23:00,66,R,ugm-3
03-02-1988,24:00,66,R,ugm-3
04-02-1988,01:00,68,R,ugm-3
04-02-1988,02:00,70,R,ugm-3
04-02-1988,03:00,70,R,ugm-3
04-02-1988,04:00,70,R,ugm-3
04-02-1988,05:00,68,R,ugm-3
04-02-1988,06:00,66,R,ugm-3
04-02-1988,07:00,64,R,ugm-3
04-02-1988,08:00,52,R,ugm-3
04-02-1988,09:00,52,R,ugm-3
04-02-1988,10:00,50,R,ugm-3
04-02-1988,11:00,50,R,ugm-3
04-02-1988,12:00,50,R,ugm-3
04-02-1988,13:00,52,R,ugm-3
04-02-1988,14:00,54,R,ugm-3
04-02-1988,15:00,54,R,ugm-3
04-02-1988,16:00,54,R,ugm-3
04-02-1988,17:00,56,R,ugm-3
04-02-1988,18:00,54,R,ugm-3
04-02-1988,19:00,54,R,ugm-3
04-02-1988,20:00,54,R,ugm-3
04-02-1988,21:00,52,R,ugm-3
04-02-1988,22:00,64,R,ugm-3
04-02-1988,23:00,66,R,ugm-3
04-02-1988,24:00,68,R,ugm-3
05-02-1988,01:00,74,R,ugm-3
05-02-1988,02:00,68,R,ugm-3
05-02-1988,03:00,64,R,ugm-3
05-02-1988,04:00,64,R,ugm-3
05-02-1988,05:00,64,R,ugm-3
05-02-1988,06:00,64,R,ugm-3
05-02-1988,07:00,64,R,ugm-3
05-02-1988,08:00,62,R,ugm-3
05-02-1988,09:00,62,R,ugm-3
05-02-1988,10:00,60,R,ugm-3
05-02-1988,11:00,60,R,ugm-3
05-02-1988,12:00,60,R,ugm-3
05-02-1988,13:00,60,R,ugm-3
05-02-1988,14:00,62,R,ugm-3
05-02-1988,15:00,64,R,ugm-3
05-02-1988,16:00,64,R,ugm-3
05-02-1988,17:00,62,R,ugm-3
05-02-1988,18:00,62,R,ugm-3
05-02-1988,19:00,64,R,ugm-3
05-02-1988,20:00,64,R,ugm-3